This demonstration page uses our WeatherBlox Daily Observations layout. Learn more.

41.86663, -103.66717

Hourly Observations for May 4, 2019

Temp ( °F °C ) Dew Point ( °F °C ) Humidity (%) Winds ( mph kmh ) Pressure ( in mb ) Visibility ( mi km ) Precip ( " mm )
12:53 am 00:53 Clear 43 6.1 34 1.1 71 71 SE 5 7 29.97 1015 10 16.09344 0 0
1:53 am 01:53 Clear 39 3.9 33 0.6 79 79 ESE 5 7 29.94 1014 10 16.09344 0 0
2:53 am 02:53 Mostly Clear 39 3.9 33 0.6 79 79 ESE 5 7 29.94 1014 10 16.09344 0 0
3:53 am 03:53 Clear 39 3.9 32 0 76 76 SE 5 7 29.94 1014 10 16.09344 0 0
4:53 am 04:53 Clear 37 2.8 32 0 82 82 ENE 7 11 29.91 1013 10 16.09344 0 0
5:53 am 05:53 Sunny 36 2.2 31 -0.6 82 82 WSW 3 6 29.91 1013 10 16.09344 0 0
6:53 am 06:53 Sunny 41 5 35 1.7 79 79 Calm 29.91 1013 10 16.09344 0 0
7:53 am 07:53 Sunny 45 7.2 37 2.8 74 74 WNW 6 9 29.91 1013 10 16.09344 0 0
8:53 am 08:53 Sunny 51 10.6 38 3.3 61 61 NW 12 19 29.91 1013 10 16.09344 0 0
9:53 am 09:53 Sunny 56 13.3 41 5 57 57 WNW 8 13 29.88 1012 10 16.09344 0 0
10:53 am 10:53 Sunny 62 16.7 41 5 46 46 NW 6 9 29.85 1011 10 16.09344 0 0
11:53 am 11:53 Sunny 67 19.4 31 -0.6 26 26 VRB 3 6 29.83 1010 10 16.09344 0 0
12:53 pm 12:53 Sunny 68 20 35 1.7 30 30 VRB 5 7 29.8 1009 10 16.09344 0 0
1:53 pm 13:53 Sunny 72 22.2 38 3.3 29 29 W 8 13 29.77 1008 10 16.09344 0 0
2:53 pm 14:53 Sunny 73 22.8 38 3.3 28 28 WSW 10 17 29.74 1007 10 16.09344 0 0
3:53 pm 15:53 Sunny 72 22.2 36 2.2 27 27 W 13 20 29.71 1006 10 16.09344 0 0
4:53 pm 16:53 Sunny 73 22.8 34 1.1 24 24 WSW 14 22 29.71 1006 10 16.09344 0 0
5:53 pm 17:53 Mostly Sunny 73 22.8 34 1.1 24 24 WNW 12 19 29.68 1005 10 16.09344 0 0
6:53 pm 18:53 Partly Cloudy 71 21.7 36 2.2 28 28 NW 3 6 29.68 1005 10 16.09344 0 0
7:53 pm 19:53 Sunny 64 17.8 33 0.6 32 32 E 3 6 29.68 1005 10 16.09344 0 0
8:53 pm 20:53 Clear 56 13.3 35 1.7 46 46 VRB 3 6 29.71 1006 10 16.09344 0 0
9:53 pm 21:53 Clear 52 11.1 35 1.7 53 53 VRB 5 7 29.71 1006 10 16.09344 0 0
10:53 pm 22:53 Partly Cloudy 56 13.3 36 2.2 47 47 NNE 17 28 29.71 1006 10 16.09344 0 0
11:53 pm 23:53 Mostly Clear 53 11.7 37 2.8 55 55 NNE 21 33 29.68 1005 10 16.09344 0 0

Powered by AerisWeather